weather.gov     
National Weather Service

Regional Weather Roundup
NWS Homepage
This page is being discontinued on March 12, 2014.
The same data is available at this site. Please update your bookmarks.
Thank you, and we apologize for the inconvenience.
Please send an email to SR-SRH.Webmaster@noaa.gov with any concerns.


Current Version
Previous Version:    01  02  03  04  05  06  07  08  09  10  11  12  13  14  15  16  17  18  19  20  21  22  23  24  25  26  27  28  29  30  
   31  32  33  34  35  36  37  38  39  40  41  42  43  44  45  46  47  48  49  50  51  52  53  
[Printable]
091
ASUS43 KLSX 240007
RWRMO

WEATHER SUMMARY FOR MISSOURI
NATIONAL WEATHER SERVICE SPRINGFIELD MO
700 PM CDT WED JUL 23 2014

NOTE: "FAIR" INDICATES FEW OR NO CLOUDS BELOW 12,000 FEET WITH NO
       SIGNIFICANT WEATHER AND/OR OBSTRUCTIONS TO VISIBILITY.
       CURRENT SKY AND/OR WEATHER CONDITIONS ARE NOT AVAILABLE FOR
       CHILLICOTHE AND FARMINGTON.

MOZ001>031-035>038-043-044-053-054-240100-
...NORTHERN AND WESTERN MISSOURI...

CITY           SKY/WX    TMP DP  RH WIND       PRES   REMARKS
KANSAS CTY INT MOSUNNY   83  63  50 NE13      30.11R
6HR MIN TEMP:  83; 6HR MAX TEMP:  86;

KANSAS C DTWN  SUNNY     86  63  45 NE13      30.08S
6HR MIN TEMP:  86; 6HR MAX TEMP:  89;

LEE`S SUMMIT   SUNNY     84  63  49 NE13      30.10S
6HR MIN TEMP:  84; 6HR MAX TEMP:  87;

ST JOSEPH      SUNNY     83  65  54 NE9       30.10S
6HR MIN TEMP:  83; 6HR MAX TEMP:  86;

CHILLICOTHE      N/A     83  61  47 N9        30.12R
6HR MIN TEMP:  83; 6HR MAX TEMP:  87;

KIRKSVILLE     SUNNY     78  60  53 NE13      30.14R
6HR MIN TEMP:  78; 6HR MAX TEMP:  84;


$$
MOZ066>068-077>081-088>096-101>105-240100-
...SOUTHWEST MISSOURI...

CITY           SKY/WX    TMP DP  RH WIND       PRES   REMARKS
SPRINGFIELD    MOSUNNY   89  63  41 N9        30.05F HX  90
6HR MIN TEMP:  87; 6HR MAX TEMP:  93;

JOPLIN         MOSUNNY   86  66  51 NE9       30.06S
6HR MIN TEMP:  69; 6HR MAX TEMP:  90; 6HR PCP:  0.11;


$$
MOZ032>034-039>042-045>050-055>058-069>072-240100-
...CENTRAL MISSOURI...

CITY           SKY/WX    TMP DP  RH WIND       PRES   REMARKS
COLUMBIA       MOSUNNY   83  63  50 NE13      30.09R
6HR MIN TEMP:  83; 6HR MAX TEMP:  88;

JEFFERSON CITY SUNNY     83  63  50 N9        30.07R
6HR MIN TEMP:  83; 6HR MAX TEMP:  87;

ROLLA          MOSUNNY   83  66  56 N12       30.06R
6HR MIN TEMP:  82; 6HR MAX TEMP:  91;

SEDALIA        SUNNY     83  64  52 N10       30.10R
6HR MIN TEMP:  82; 6HR MAX TEMP:  88;

WHITEMAN AFB   SUNNY     81  55  40 NE10      30.09S
OSAGE BEACH    SUNNY     84  64  51 NE10      30.07R

$$
MOZ051-052-059>065-240100-
...EAST CENTRAL MISSOURI...

CITY           SKY/WX    TMP DP  RH WIND       PRES   REMARKS
ST LOUIS INTL  MOSUNNY   81  63  54 N16       30.06R
6HR MIN TEMP:  81; 6HR MAX TEMP:  85;

SPIRIT OF STL  MOSUNNY   81  63  54 NE15      30.05R
6HR MIN TEMP:  78; 6HR MAX TEMP:  86; 6HR PCP: TRACE;

ST CHARLES     SUNNY     79  62  56 N12       30.06R
6HR MIN TEMP:  79; 6HR MAX TEMP:  84;


$$
MOZ072>076-082>087-097>100-106>115-240100-
...SOUTH CENTRAL AND SOUTHEAST MISSOURI...

CITY           SKY/WX    TMP DP  RH WIND       PRES   REMARKS
CAPE GIRARDEAU MOSUNNY   81  70  69 CALM      29.99R
6HR MIN TEMP:  71; 6HR MAX TEMP:  81;

FARMINGTON     PTSUNNY   81  68  65 NE8G16    30.07R
6HR MIN TEMP:  81; 6HR MAX TEMP:  86;

POPLAR BLUFF   PTSUNNY   76  68  76 NW5       29.99R
6HR MIN TEMP:  69; 6HR MAX TEMP:  88; 6HR PCP:  0.62;

WEST PLAINS    PTSUNNY   74  68  81 SW12G18   30.10R
6HR MIN TEMP:  71; 6HR MAX TEMP:  93; 6HR PCP:  0.08;


$$




U.S. Dept. of Commerce
NOAA National Weather Service
1325 East West Highway
Silver Spring, MD 20910
E-mail: w-nws.webmaster@noaa.gov
Page last modified: May 16, 2007
NATIONAL WEATHER SERVICE: for Safety, for Work, for Fun - FOR LIFE